Time,TemperatureF,DewpointF,PressureIn,WindDirection,WindDirectionDegrees,WindSpeedMPH,WindSpeedGustMPH,Humidity,HourlyPrecipIn,Conditions,Clouds,dailyrainin,SoftwareType,DateUTC
2013-11-11 00:53:00,38.3,27.2,30.24,SW,225,1.1,0.0,64,0.00,CLR,,0.00,WeatherDisplay:10.37,2013-11-11 05:53:00,
2013-11-11 00:54:00,38.3,27.2,30.24,SW,225,1.1,0.0,64,0.00,CLR,,0.00,WeatherDisplay:10.37,2013-11-11 05:54:00,
2013-11-11 00:55:00,38.3,27.2,30.24,SW,225,0.0,2.0,64,0.00,CLR,,0.00,WeatherDisplay:10.37,2013-11-11 05:55:00,
2013-11-11 01:00:00,38.3,27.6,30.24,SW,225,1.1,1.6,65,0.00,CLR,,0.00,WeatherDisplay:10.37,2013-11-11 06:00:00,
2013-11-11 01:01:00,38.3,27.6,30.24,SW,225,3.5,3.5,65,0.00,CLR,,0.00,WeatherDisplay:10.37,2013-11-11 06:01:00,
2013-11-11 01:06:00,38.5,27.4,30.23,SW,225,2.3,2.3,64,0.00,CLR,,0.00,WeatherDisplay:10.37,2013-11-11 06:06:00,
2013-11-11 01:11:00,38.5,27.4,30.23,SW,225,1.1,0.0,64,0.00,CLR,,0.00,WeatherDisplay:10.37,2013-11-11 06:11:00,
2013-11-11 01:16:00,38.1,27.0,30.24,South,180,1.1,0.0,64,0.00,CLR,,0.00,WeatherDisplay:10.37,2013-11-11 06:16:00,
2013-11-11 01:21:00,37.9,27.2,30.23,South,180,1.1,0.0,65,0.00,CLR,,0.00,WeatherDisplay:10.37,2013-11-11 06:21:00,
2013-11-11 01:26:00,37.8,27.0,30.24,South,180,1.1,1.1,65,0.00,CLR,,0.00,WeatherDisplay:10.37,2013-11-11 06:26:00,
2013-11-11 01:31:00,37.6,27.2,30.24,South,180,1.1,0.0,66,0.00,CLR,,0.00,WeatherDisplay:10.37,2013-11-11 06:31:00,
2013-11-11 01:36:00,37.6,27.2,30.24,SE,135,1.1,0.0,66,0.00,CLR,,0.00,WeatherDisplay:10.37,2013-11-11 06:36:00,
2013-11-11 01:41:00,37.6,27.2,30.24,SW,225,1.1,0.0,66,0.00,CLR,,0.00,WeatherDisplay:10.37,2013-11-11 06:41:00,
2013-11-11 01:46:00,37.8,27.8,30.24,West,270,3.5,3.5,67,0.00,CLR,,0.00,WeatherDisplay:10.37,2013-11-11 06:46:00,
2013-11-11 01:51:00,38.5,28.1,30.25,SW,225,1.1,0.0,66,0.00,CLR,,0.00,WeatherDisplay:10.37,2013-11-11 06:51:00,
2013-11-11 01:56:00,38.8,28.1,30.25,West,270,1.1,1.6,65,0.00,CLR,,0.00,WeatherDisplay:10.37,2013-11-11 06:56:00,
2013-11-11 02:01:00,39.4,28.2,30.25,West,270,3.5,3.5,64,0.00,CLR,,0.00,WeatherDisplay:10.37,2013-11-11 07:01:00,
2013-11-11 02:06:00,39.9,28.3,30.24,West,270,3.5,3.5,63,0.00,CLR,,0.00,WeatherDisplay:10.37,2013-11-11 07:06:00,
2013-11-11 02:11:00,40.5,28.5,30.24,SW,225,4.6,4.6,62,0.00,CLR,,0.00,WeatherDisplay:10.37,2013-11-11 07:11:00,
2013-11-11 02:17:00,40.8,28.4,30.24,West,270,3.5,3.5,61,0.00,CLR,,0.00,WeatherDisplay:10.37,2013-11-11 07:17:00,
2013-11-11 02:22:00,40.8,28.4,30.25,SW,225,3.5,3.5,61,0.00,CLR,,0.00,WeatherDisplay:10.37,2013-11-11 07:22:00,
2013-11-11 02:27:00,40.8,28.4,30.25,SW,225,3.5,3.5,61,0.00,CLR,,0.00,WeatherDisplay:10.37,2013-11-11 07:27:00,
2013-11-11 02:32:00,40.8,28.4,30.25,West,270,3.5,3.5,61,0.00,CLR,,0.00,WeatherDisplay:10.37,2013-11-11 07:32:00,
2013-11-11 02:37:00,40.5,28.5,30.25,West,270,3.5,3.5,62,0.00,CLR,,0.00,WeatherDisplay:10.37,2013-11-11 07:37:00,
2013-11-11 02:42:00,40.3,28.7,30.25,SW,225,3.5,3.5,63,0.00,CLR,,0.00,WeatherDisplay:10.37,2013-11-11 07:42:00,
2013-11-11 02:47:00,39.7,28.2,30.25,SW,225,3.5,3.5,63,0.00,CLR,,0.00,WeatherDisplay:10.37,2013-11-11 07:47:00,
2013-11-11 02:52:00,39.7,28.2,30.25,SW,225,3.5,3.5,63,0.00,CLR,,0.00,WeatherDisplay:10.37,2013-11-11 07:52:00,
2013-11-11 02:57:00,40.3,28.7,30.25,SW,225,3.5,3.5,63,0.00,CLR,,0.00,WeatherDisplay:10.37,2013-11-11 07:57:00,
2013-11-11 03:02:00,40.5,28.8,30.25,West,270,2.3,0.0,63,0.00,CLR,,0.00,WeatherDisplay:10.37,2013-11-11 08:02:00,
2013-11-11 03:07:00,40.1,28.5,30.25,SW,225,1.1,0.0,63,0.00,CLR,,0.00,WeatherDisplay:10.37,2013-11-11 08:07:00,
2013-11-11 03:12:00,39.0,27.9,30.25,East,90,2.3,2.3,64,0.00,CLR,,0.00,WeatherDisplay:10.37,2013-11-11 08:12:00,
2013-11-11 03:17:00,37.8,27.4,30.25,East,90,2.3,0.0,66,0.00,CLR,,0.00,WeatherDisplay:10.37,2013-11-11 08:17:00,
2013-11-11 03:22:00,37.4,27.4,30.25,SE,135,2.3,2.3,67,0.00,CLR,,0.00,WeatherDisplay:10.37,2013-11-11 08:22:00,
2013-11-11 03:27:00,36.9,27.6,30.25,East,90,3.5,3.5,69,0.00,CLR,,0.00,WeatherDisplay:10.37,2013-11-11 08:27:00,
2013-11-11 03:32:00,36.7,28.2,30.25,SW,225,1.1,1.1,71,0.00,CLR,,0.00,WeatherDisplay:10.37,2013-11-11 08:32:00,
2013-11-11 03:37:00,36.7,27.8,30.25,West,270,2.3,0.0,70,0.00,CLR,,0.00,WeatherDisplay:10.37,2013-11-11 08:37:00,
2013-11-11 03:42:00,36.9,28.0,30.25,East,90,1.1,1.6,70,0.00,CLR,,0.00,WeatherDisplay:10.37,2013-11-11 08:42:00,
2013-11-11 03:47:00,36.7,28.5,30.25,SW,225,3.5,0.0,72,0.00,CLR,,0.00,WeatherDisplay:10.37,2013-11-11 08:47:00,
2013-11-11 03:52:00,36.7,28.2,30.25,NE,45,2.3,0.0,71,0.00,CLR,,0.00,WeatherDisplay:10.37,2013-11-11 08:52:00,
2013-11-11 03:57:00,36.5,28.0,30.25,South,180,1.1,0.0,71,0.00,CLR,,0.00,WeatherDisplay:10.37,2013-11-11 08:57:00,
2013-11-11 04:02:00,36.5,28.0,30.25,NE,45,1.1,0.0,71,0.00,CLR,,0.00,WeatherDisplay:10.37,2013-11-11 09:02:00,
2013-11-11 04:07:00,36.3,28.2,30.25,NE,45,1.1,1.1,72,0.00,CLR,,0.00,WeatherDisplay:10.37,2013-11-11 09:07:00,
2013-11-11 04:12:00,36.3,28.2,30.25,South,180,1.1,0.0,72,0.00,CLR,,0.00,WeatherDisplay:10.37,2013-11-11 09:12:00,
2013-11-11 04:17:00,36.5,28.3,30.24,East,90,1.1,1.1,72,0.00,CLR,,0.00,WeatherDisplay:10.37,2013-11-11 09:17:00,
2013-11-11 04:22:00,36.7,28.5,30.24,SW,225,1.1,0.0,72,0.00,CLR,,0.00,WeatherDisplay:10.37,2013-11-11 09:22:00,
2013-11-11 04:27:00,37.0,28.5,30.24,West,270,1.1,0.0,71,0.00,CLR,,0.00,WeatherDisplay:10.37,2013-11-11 09:27:00,
2013-11-11 04:32:00,37.0,28.5,30.24,West,270,2.3,2.3,71,0.00,CLR,,0.00,WeatherDisplay:10.37,2013-11-11 09:32:00,
2013-11-11 04:37:00,37.0,28.5,30.24,SW,225,3.5,3.5,71,0.00,CLR,,0.00,WeatherDisplay:10.37,2013-11-11 09:37:00,
2013-11-11 04:42:00,37.4,28.5,30.24,SW,225,3.5,3.5,70,0.00,CLR,,0.00,WeatherDisplay:10.37,2013-11-11 09:42:00,
2013-11-11 04:47:00,37.4,28.5,30.23,SW,225,3.5,3.5,70,0.00,CLR,,0.00,WeatherDisplay:10.37,2013-11-11 09:47:00,
2013-11-11 04:52:00,37.2,28.3,30.24,SW,225,2.3,2.3,70,0.00,CLR,,0.00,WeatherDisplay:10.37,2013-11-11 09:52:00,
2013-11-11 04:57:00,37.2,28.3,30.24,SW,225,1.1,1.1,70,0.00,CLR,,0.00,WeatherDisplay:10.37,2013-11-11 09:57:00,
2013-11-11 05:02:00,37.0,28.5,30.24,East,90,1.1,1.1,71,0.00,CLR,,0.00,WeatherDisplay:10.37,2013-11-11 10:02:00,
2013-11-11 05:07:00,36.1,27.6,30.24,East,90,1.1,0.0,71,0.00,CLR,,0.00,WeatherDisplay:10.37,2013-11-11 10:07:00,
2013-11-11 05:12:00,35.8,27.6,30.24,SW,225,1.1,0.0,72,0.00,CLR,,0.00,WeatherDisplay:10.37,2013-11-11 10:12:00,
2013-11-11 05:17:00,35.4,27.6,30.25,SW,225,1.1,0.0,73,0.00,CLR,,0.00,WeatherDisplay:10.37,2013-11-11 10:17:00,
2013-11-11 05:22:00,35.2,27.4,30.25,SW,225,1.1,0.0,73,0.00,CLR,,0.00,WeatherDisplay:10.37,2013-11-11 10:22:00,
2013-11-11 05:27:00,35.1,27.6,30.25,SW,225,0.0,0.0,74,0.00,CLR,,0.00,WeatherDisplay:10.37,2013-11-11 10:27:00,
2013-11-11 05:32:00,34.9,27.4,30.25,SW,225,1.1,1.1,74,0.00,CLR,,0.00,WeatherDisplay:10.37,2013-11-11 10:32:00,
2013-11-11 05:37:00,34.7,27.6,30.26,SW,225,1.1,0.0,75,0.00,CLR,,0.00,WeatherDisplay:10.37,2013-11-11 10:37:00,
2013-11-11 05:42:00,34.5,27.7,30.26,SW,225,1.1,0.0,76,0.00,CLR,,0.00,WeatherDisplay:10.37,2013-11-11 10:42:00,
2013-11-11 05:47:00,34.5,27.7,30.26,SW,225,1.1,0.0,76,0.00,CLR,,0.00,WeatherDisplay:10.37,2013-11-11 10:47:00,
2013-11-11 05:52:00,34.5,27.7,30.26,SW,225,1.1,0.0,76,0.00,CLR,,0.00,WeatherDisplay:10.37,2013-11-11 10:52:00,
2013-11-11 05:57:00,34.5,27.7,30.26,South,180,1.1,0.0,76,0.00,CLR,,0.00,WeatherDisplay:10.37,2013-11-11 10:57:00,
2013-11-11 06:02:00,34.7,28.2,30.26,SW,225,1.1,0.0,77,0.00,CLR,,0.00,WeatherDisplay:10.37,2013-11-11 11:02:00,
2013-11-11 06:07:00,35.1,28.6,30.26,SW,225,1.1,0.0,77,0.00,CLR,,0.00,WeatherDisplay:10.37,2013-11-11 11:07:00,
2013-11-11 06:12:00,35.2,28.8,30.26,SW,225,1.1,0.0,77,0.00,CLR,,0.00,WeatherDisplay:10.37,2013-11-11 11:12:00,
2013-11-11 06:17:00,35.2,28.4,30.26,SE,135,1.1,0.0,76,0.00,CLR,,0.00,WeatherDisplay:10.37,2013-11-11 11:17:00,
2013-11-11 06:22:00,35.1,28.3,30.26,East,90,1.1,1.1,76,0.00,CLR,,0.00,WeatherDisplay:10.37,2013-11-11 11:22:00,
2013-11-11 06:27:00,34.7,27.9,30.26,SE,135,1.1,0.0,76,0.00,CLR,,0.00,WeatherDisplay:10.37,2013-11-11 11:27:00,
2013-11-11 06:32:00,34.5,28.1,30.26,East,90,1.1,0.0,77,0.00,CLR,,0.00,WeatherDisplay:10.37,2013-11-11 11:32:00,
2013-11-11 06:37:00,34.3,27.9,30.27,SW,225,1.1,0.0,77,0.00,CLR,,0.00,WeatherDisplay:10.37,2013-11-11 11:37:00,
2013-11-11 06:42:00,34.2,28.0,30.27,SW,225,1.1,0.0,78,0.00,CLR,,0.00,WeatherDisplay:10.37,2013-11-11 11:42:00,
2013-11-11 06:47:00,34.5,28.4,30.27,SW,225,1.1,1.1,78,0.00,CLR,,0.00,WeatherDisplay:10.37,2013-11-11 11:47:00,
2013-11-11 06:52:00,35.1,29.2,30.27,SW,225,2.3,2.3,79,0.00,CLR,,0.00,WeatherDisplay:10.37,2013-11-11 11:52:00,
2013-11-11 06:57:00,35.4,29.2,30.27,SW,225,2.3,0.0,78,0.00,CLR,,0.00,WeatherDisplay:10.37,2013-11-11 11:57:00,
2013-11-11 07:02:00,35.8,29.3,30.27,SW,225,2.3,0.0,77,0.00,CLR,,0.00,WeatherDisplay:10.37,2013-11-11 12:02:00,
2013-11-11 07:07:00,36.5,29.7,30.28,SW,225,1.1,1.1,76,0.00,CLR,,0.00,WeatherDisplay:10.37,2013-11-11 12:07:00,
2013-11-11 07:12:00,36.9,29.7,30.28,SW,225,1.1,0.0,75,0.00,CLR,,0.00,WeatherDisplay:10.37,2013-11-11 12:12:00,
2013-11-11 07:17:00,37.2,29.7,30.27,SW,225,1.1,1.1,74,0.00,CLR,,0.00,WeatherDisplay:10.37,2013-11-11 12:17:00,
2013-11-11 07:22:00,37.8,29.9,30.27,SW,225,2.3,2.3,73,0.00,CLR,,0.00,WeatherDisplay:10.37,2013-11-11 12:22:00,
2013-11-11 07:27:00,37.9,29.7,30.26,SW,225,1.1,1.1,72,0.00,CLR,,0.00,WeatherDisplay:10.37,2013-11-11 12:27:00,
2013-11-11 07:32:00,38.1,29.9,30.27,West,270,2.3,2.3,72,0.00,CLR,,0.00,WeatherDisplay:10.37,2013-11-11 12:32:00,
2013-11-11 07:37:00,38.3,29.7,30.27,SW,225,1.1,0.0,71,0.00,CLR,,0.00,WeatherDisplay:10.37,2013-11-11 12:37:00,
2013-11-11 07:42:00,38.5,29.9,30.27,SW,225,1.6,0.0,71,0.00,CLR,,0.00,WeatherDisplay:10.37,2013-11-11 12:42:00,
2013-11-11 07:47:00,38.7,30.1,30.27,SW,225,1.1,1.1,71,0.00,CLR,,0.00,WeatherDisplay:10.37,2013-11-11 12:47:00,
2013-11-11 07:52:00,39.0,30.1,30.27,SW,225,1.1,1.1,70,0.00,CLR,,0.00,WeatherDisplay:10.37,2013-11-11 12:52:00,
2013-11-11 07:57:00,39.4,30.4,30.27,SW,225,1.1,0.0,70,0.00,CLR,,0.00,WeatherDisplay:10.37,2013-11-11 12:57:00,
2013-11-11 08:02:00,39.7,30.8,30.27,SW,225,1.1,0.0,70,0.00,CLR,,0.00,WeatherDisplay:10.37,2013-11-11 13:02:00,
2013-11-11 08:07:00,40.3,31.3,30.28,South,180,1.1,0.0,70,0.00,CLR,,0.00,WeatherDisplay:10.37,2013-11-11 13:07:00,
2013-11-11 08:12:00,40.6,31.3,30.27,SW,225,1.1,1.1,69,0.00,CLR,,0.00,WeatherDisplay:10.37,2013-11-11 13:12:00,
2013-11-11 08:17:00,41.0,31.6,30.27,West,270,2.3,0.0,69,0.00,CLR,,0.00,WeatherDisplay:10.37,2013-11-11 13:17:00,
2013-11-11 08:22:00,41.4,31.2,30.27,SW,225,1.6,1.6,67,0.00,CLR,,0.00,WeatherDisplay:10.37,2013-11-11 13:22:00,
2013-11-11 08:27:00,41.5,31.4,30.27,SW,225,1.1,0.0,67,0.00,CLR,,0.00,WeatherDisplay:10.37,2013-11-11 13:27:00,
2013-11-11 08:32:00,41.7,31.6,30.27,SW,225,1.1,0.0,67,0.00,CLR,,0.00,WeatherDisplay:10.37,2013-11-11 13:32:00,
2013-11-11 08:37:00,41.9,31.4,30.27,SW,225,1.1,0.0,66,0.00,CLR,,0.00,WeatherDisplay:10.37,2013-11-11 13:37:00,
2013-11-11 08:42:00,42.3,31.7,30.26,SW,225,1.1,0.0,66,0.00,CLR,,0.00,WeatherDisplay:10.37,2013-11-11 13:42:00,
2013-11-11 08:47:00,42.4,31.9,30.27,West,270,1.1,0.0,66,0.00,CLR,,0.00,WeatherDisplay:10.37,2013-11-11 13:47:00,
2013-11-11 08:52:00,42.6,31.7,30.27,SW,225,1.1,1.1,65,0.00,CLR,,0.00,WeatherDisplay:10.37,2013-11-11 13:52:00,
2013-11-11 08:57:00,43.2,32.2,30.27,SSW,202,1.1,0.0,65,0.00,CLR,,0.00,WeatherDisplay:10.37,2013-11-11 13:57:00,
2013-11-11 09:02:00,43.7,31.9,30.27,SW,225,1.1,1.1,63,0.00,CLR,,0.00,WeatherDisplay:10.37,2013-11-11 14:02:00,
2013-11-11 09:07:00,44.1,31.9,30.27,SW,225,1.1,1.1,62,0.00,CLR,,0.00,WeatherDisplay:10.37,2013-11-11 14:07:00,
2013-11-11 09:12:00,44.8,32.1,30.27,West,270,1.1,1.1,61,0.00,CLR,,0.00,WeatherDisplay:10.37,2013-11-11 14:12:00,
2013-11-11 09:17:00,45.3,31.8,30.26,SW,225,1.1,0.0,59,0.00,CLR,,0.00,WeatherDisplay:10.37,2013-11-11 14:17:00,
2013-11-11 09:22:00,46.2,32.7,30.26,SW,225,1.1,0.0,59,0.00,CLR,,0.00,WeatherDisplay:10.37,2013-11-11 14:22:00,
2013-11-11 09:27:00,47.1,33.1,30.26,SW,225,1.1,0.0,58,0.00,CLR,,0.00,WeatherDisplay:10.37,2013-11-11 14:27:00,
2013-11-11 09:32:00,47.3,31.9,30.26,NW,315,1.1,0.0,55,0.00,CLR,,0.00,WeatherDisplay:10.37,2013-11-11 14:32:00,
2013-11-11 09:37:00,46.8,31.4,30.27,West,270,1.1,0.0,55,0.00,CLR,,0.00,WeatherDisplay:10.37,2013-11-11 14:37:00,
2013-11-11 09:42:00,46.4,31.1,30.26,SW,225,1.1,1.1,55,0.00,CLR,,0.00,WeatherDisplay:10.37,2013-11-11 14:42:00,
2013-11-11 09:47:00,46.2,31.8,30.26,East,90,3.5,3.5,57,0.00,CLR,,0.00,WeatherDisplay:10.37,2013-11-11 14:47:00,
2013-11-11 09:52:00,46.0,31.6,30.26,SW,225,3.5,3.5,57,0.00,CLR,,0.00,WeatherDisplay:10.37,2013-11-11 14:52:00,
2013-11-11 09:57:00,46.4,31.5,30.26,SW,225,2.3,2.3,56,0.00,CLR,,0.00,WeatherDisplay:10.37,2013-11-11 14:57:00,
2013-11-11 10:02:00,46.9,32.0,30.26,West,270,3.5,3.5,56,0.00,SCT,,0.00,WeatherDisplay:10.37,2013-11-11 15:02:00,
2013-11-11 10:07:00,46.9,31.6,30.26,SW,225,2.3,2.3,55,0.00,SCT,,0.00,WeatherDisplay:10.37,2013-11-11 15:07:00,
2013-11-11 10:12:00,47.7,31.8,30.26,SW,225,2.3,2.3,54,0.00,SCT,,0.00,WeatherDisplay:10.37,2013-11-11 15:12:00,
2013-11-11 10:17:00,48.6,32.2,30.25,SW,225,2.3,2.3,53,0.00,SCT,,0.00,WeatherDisplay:10.37,2013-11-11 15:17:00,
2013-11-11 10:22:00,49.3,32.4,30.25,SE,135,3.5,3.5,52,0.00,SCT,,0.00,WeatherDisplay:10.37,2013-11-11 15:22:00,
2013-11-11 10:27:00,49.8,31.9,30.25,SW,225,3.5,3.5,50,0.00,SCT,,0.00,WeatherDisplay:10.37,2013-11-11 15:27:00,
2013-11-11 10:32:00,50.4,31.9,30.25,West,270,5.8,5.8,49,0.00,SCT,,0.00,WeatherDisplay:10.37,2013-11-11 15:32:00,
2013-11-11 10:37:00,50.9,31.4,30.25,SW,225,4.6,4.6,47,0.00,SCT,,0.00,WeatherDisplay:10.37,2013-11-11 15:37:00,
2013-11-11 10:42:00,51.1,30.5,30.24,SE,135,3.5,3.5,45,0.00,SCT,,0.00,WeatherDisplay:10.37,2013-11-11 15:42:00,
2013-11-11 10:47:00,51.3,30.6,30.23,SW,225,2.3,2.3,45,0.00,SCT,,0.00,WeatherDisplay:10.37,2013-11-11 15:47:00,
2013-11-11 10:52:00,51.8,30.6,30.23,SW,225,2.3,2.3,44,0.00,SCT,,0.00,WeatherDisplay:10.37,2013-11-11 15:52:00,
2013-11-11 10:57:00,51.8,29.4,30.23,NE,45,3.5,3.5,42,0.00,SCT,,0.00,WeatherDisplay:10.37,2013-11-11 15:57:00,
2013-11-11 11:02:00,52.0,29.6,30.23,SW,225,3.5,3.5,42,0.00,SCT,,0.00,WeatherDisplay:10.37,2013-11-11 16:02:00,
2013-11-11 11:07:00,51.8,30.0,30.23,SW,225,2.3,2.3,43,0.00,SCT,,0.00,WeatherDisplay:10.37,2013-11-11 16:07:00,
2013-11-11 11:12:00,51.3,30.1,30.23,SE,135,3.5,3.5,44,0.00,SCT,,0.00,WeatherDisplay:10.37,2013-11-11 16:12:00,
2013-11-11 11:17:00,51.4,30.8,30.22,SW,225,3.5,3.5,45,0.00,OVC,,0.00,WeatherDisplay:10.37,2013-11-11 16:17:00,
2013-11-11 11:22:00,51.4,30.2,30.22,SW,225,3.5,3.5,44,0.00,OVC,,0.00,WeatherDisplay:10.37,2013-11-11 16:22:00,
2013-11-11 11:27:00,51.8,30.0,30.21,SSW,202,3.5,3.5,43,0.00,OVC,,0.00,WeatherDisplay:10.37,2013-11-11 16:27:00,
2013-11-11 11:32:00,52.0,29.6,30.20,SW,225,4.6,4.6,42,0.00,OVC,,0.00,WeatherDisplay:10.37,2013-11-11 16:32:00,
2013-11-11 11:37:00,52.2,29.7,30.20,SW,225,2.3,2.3,42,0.00,OVC,,0.00,WeatherDisplay:10.37,2013-11-11 16:37:00,
2013-11-11 11:42:00,52.5,28.9,30.19,SW,225,4.6,4.6,40,0.00,OVC,,0.00,WeatherDisplay:10.37,2013-11-11 16:42:00,
2013-11-11 11:47:00,52.9,30.4,30.19,SW,225,2.3,0.0,42,0.00,OVC,,0.00,WeatherDisplay:10.37,2013-11-11 16:47:00,
2013-11-11 11:52:00,53.6,30.4,30.19,SW,225,2.2,2.2,41,0.00,OVC,,0.00,WeatherDisplay:10.37,2013-11-11 16:52:00,
2013-11-11 11:57:00,54.0,28.3,30.18,SW,225,3.5,3.5,37,0.00,OVC,,0.00,WeatherDisplay:10.37,2013-11-11 16:57:00,
2013-11-11 12:02:00,54.0,28.9,30.18,West,270,4.6,4.6,38,0.00,OVC,,0.00,WeatherDisplay:10.37,2013-11-11 17:02:00,
2013-11-11 12:07:00,54.3,29.9,30.18,West,270,3.5,3.5,39,0.00,OVC,,0.00,WeatherDisplay:10.37,2013-11-11 17:07:00,
2013-11-11 12:12:00,54.5,28.7,30.17,SW,225,3.5,3.5,37,0.00,OVC,,0.00,WeatherDisplay:10.37,2013-11-11 17:12:00,
2013-11-11 12:17:00,54.5,28.7,30.17,SW,225,4.6,4.6,37,0.00,OVC,,0.00,WeatherDisplay:10.37,2013-11-11 17:17:00,
2013-11-11 12:22:00,54.9,29.1,30.17,South,180,3.5,3.5,37,0.00,OVC,,0.00,WeatherDisplay:10.37,2013-11-11 17:22:00,
2013-11-11 12:27:00,54.7,28.2,30.17,South,180,4.6,4.6,36,0.00,OVC,,0.00,WeatherDisplay:10.37,2013-11-11 17:27:00,
2013-11-11 12:32:00,55.0,29.2,30.16,SW,225,1.1,0.0,37,0.00,OVC,,0.00,WeatherDisplay:10.37,2013-11-11 17:32:00,
2013-11-11 12:37:00,54.9,28.4,30.15,West,270,3.5,0.0,36,0.00,OVC,,0.00,WeatherDisplay:10.37,2013-11-11 17:37:00,
2013-11-11 12:42:00,54.9,27.7,30.16,West,270,3.5,3.5,35,0.00,OVC,,0.00,WeatherDisplay:10.37,2013-11-11 17:42:00,
2013-11-11 12:47:00,55.2,28.0,30.15,SW,225,3.5,3.5,35,0.00,OVC,,0.00,WeatherDisplay:10.37,2013-11-11 17:47:00,
2013-11-11 12:52:00,55.6,29.0,30.15,South,180,3.5,3.5,36,0.00,OVC,,0.00,WeatherDisplay:10.37,2013-11-11 17:52:00,
2013-11-11 12:57:00,55.8,28.5,30.15,West,270,2.3,0.0,35,0.00,OVC,,0.00,WeatherDisplay:10.37,2013-11-11 17:57:00,
2013-11-11 13:02:00,56.3,28.3,30.15,SW,225,3.5,3.5,34,0.00,OVC,,0.00,WeatherDisplay:10.37,2013-11-11 18:02:00,
2013-11-11 13:07:00,56.7,28.6,30.15,SW,225,1.1,1.1,34,0.00,OVC,,0.00,WeatherDisplay:10.37,2013-11-11 18:07:00,
2013-11-11 13:12:00,57.0,28.9,30.14,SW,225,3.5,3.5,34,0.00,OVC,,0.00,WeatherDisplay:10.37,2013-11-11 18:12:00,
2013-11-11 13:17:00,57.2,29.8,30.14,SE,135,2.3,0.0,35,0.00,OVC,,0.00,WeatherDisplay:10.37,2013-11-11 18:17:00,
2013-11-11 13:22:00,57.4,29.2,30.13,SW,225,3.5,3.5,34,0.00,OVC,,0.00,WeatherDisplay:10.37,2013-11-11 18:22:00,
2013-11-11 13:27:00,57.6,28.6,30.13,West,270,3.5,3.5,33,0.00,OVC,,0.00,WeatherDisplay:10.37,2013-11-11 18:27:00,
2013-11-11 13:32:00,57.6,28.6,30.13,SW,225,2.3,2.3,33,0.00,OVC,,0.00,WeatherDisplay:10.37,2013-11-11 18:32:00,
2013-11-11 13:37:00,57.9,29.0,30.13,NW,315,1.1,1.1,33,0.00,OVC,,0.00,WeatherDisplay:10.37,2013-11-11 18:37:00,
2013-11-11 13:42:00,59.0,29.2,30.12,SSW,202,2.3,2.3,32,0.00,OVC,,0.00,WeatherDisplay:10.37,2013-11-11 18:42:00,
2013-11-11 13:47:00,59.7,29.0,30.12,SW,225,3.5,3.5,31,0.00,OVC,,0.00,WeatherDisplay:10.37,2013-11-11 18:47:00,
2013-11-11 13:52:00,59.9,29.9,30.12,SW,225,2.3,2.3,32,0.00,OVC,,0.00,WeatherDisplay:10.37,2013-11-11 18:52:00,
2013-11-11 13:57:00,59.7,28.2,30.11,SW,225,5.8,0.0,30,0.00,OVC,,0.00,WeatherDisplay:10.37,2013-11-11 18:57:00,
2013-11-11 14:02:00,59.4,27.9,30.11,SW,225,3.5,3.5,30,0.00,BKN,,0.00,WeatherDisplay:10.37,2013-11-11 19:02:00,
2013-11-11 14:07:00,59.2,29.3,30.11,North,0,2.3,0.0,32,0.00,BKN,,0.00,WeatherDisplay:10.37,2013-11-11 19:07:00,
2013-11-11 14:12:00,59.4,28.7,30.11,West,270,2.3,2.3,31,0.00,BKN,,0.00,WeatherDisplay:10.37,2013-11-11 19:12:00,
2013-11-11 14:17:00,58.8,27.4,30.11,South,180,5.8,5.8,30,0.00,BKN,,0.00,WeatherDisplay:10.37,2013-11-11 19:17:00,
2013-11-11 14:22:00,58.8,29.0,30.10,SW,225,3.5,3.5,32,0.00,BKN,,0.00,WeatherDisplay:10.37,2013-11-11 19:22:00,
2013-11-11 14:27:00,58.8,28.2,30.09,South,180,3.5,3.5,31,0.00,BKN,,0.00,WeatherDisplay:10.37,2013-11-11 19:27:00,
2013-11-11 14:32:00,58.5,27.9,30.09,SW,225,2.3,0.0,31,0.00,BKN,,0.00,WeatherDisplay:10.37,2013-11-11 19:32:00,
2013-11-11 14:37:00,58.6,28.8,30.08,NW,315,1.1,0.0,32,0.00,BKN,,0.00,WeatherDisplay:10.37,2013-11-11 19:37:00,
2013-11-11 14:42:00,58.8,28.2,30.08,East,90,3.5,3.5,31,0.00,BKN,,0.00,WeatherDisplay:10.37,2013-11-11 19:42:00,
2013-11-11 14:47:00,58.6,28.1,30.08,SW,225,2.3,2.3,31,0.00,BKN,,0.00,WeatherDisplay:10.37,2013-11-11 19:47:00,
2013-11-11 14:52:00,58.5,27.9,30.08,East,90,3.5,3.5,31,0.00,BKN,,0.00,WeatherDisplay:10.37,2013-11-11 19:52:00,
2013-11-11 14:57:00,58.1,28.4,30.08,NW,315,4.6,0.0,32,0.00,BKN,,0.00,WeatherDisplay:10.37,2013-11-11 19:57:00,
2013-11-11 15:02:00,58.1,28.4,30.08,East,90,5.8,5.8,32,0.00,CLR,,0.00,WeatherDisplay:10.37,2013-11-11 20:02:00,
2013-11-11 15:07:00,57.9,27.4,30.07,West,270,2.3,2.3,31,0.00,CLR,,0.00,WeatherDisplay:10.37,2013-11-11 20:07:00,
2013-11-11 15:12:00,58.1,27.6,30.08,SW,225,3.5,3.5,31,0.00,CLR,,0.00,WeatherDisplay:10.37,2013-11-11 20:12:00,
2013-11-11 15:17:00,58.5,27.9,30.07,SW,225,1.1,0.0,31,0.00,CLR,,0.00,WeatherDisplay:10.37,2013-11-11 20:17:00,
2013-11-11 15:22:00,58.6,28.8,30.07,NW,315,1.1,0.0,32,0.00,CLR,,0.00,WeatherDisplay:10.37,2013-11-11 20:22:00,
2013-11-11 15:27:00,58.5,28.7,30.07,SW,225,1.1,0.0,32,0.00,CLR,,0.00,WeatherDisplay:10.37,2013-11-11 20:27:00,
2013-11-11 15:32:00,58.6,28.1,30.07,SW,225,1.1,0.0,31,0.00,CLR,,0.00,WeatherDisplay:10.37,2013-11-11 20:32:00,
2013-11-11 15:37:00,59.2,27.7,30.07,SW,225,3.5,3.5,30,0.00,CLR,,0.00,WeatherDisplay:10.37,2013-11-11 20:37:00,
2013-11-11 15:42:00,58.6,27.3,30.07,SW,225,1.1,0.0,30,0.00,CLR,,0.00,WeatherDisplay:10.37,2013-11-11 20:42:00,
2013-11-11 15:47:00,57.9,26.6,30.07,SW,225,3.5,3.5,30,0.00,CLR,,0.00,WeatherDisplay:10.37,2013-11-11 20:47:00,
2013-11-11 15:52:00,57.6,26.3,30.06,East,90,2.3,0.0,30,0.00,CLR,,0.00,WeatherDisplay:10.37,2013-11-11 20:52:00,
2013-11-11 15:57:00,57.4,27.0,30.06,SE,135,1.1,0.0,31,0.00,CLR,,0.00,WeatherDisplay:10.37,2013-11-11 20:57:00,
2013-11-11 16:02:00,56.8,28.0,30.06,South,180,2.3,2.3,33,0.00,CLR,,0.00,WeatherDisplay:10.37,2013-11-11 21:02:00,
2013-11-11 16:07:00,56.5,28.4,30.06,East,90,1.1,0.0,34,0.00,CLR,,0.00,WeatherDisplay:10.37,2013-11-11 21:07:00,
2013-11-11 16:12:00,56.3,28.3,30.07,SE,135,1.1,0.0,34,0.00,CLR,,0.00,WeatherDisplay:10.37,2013-11-11 21:12:00,
2013-11-11 16:17:00,55.9,27.9,30.06,SE,135,1.1,0.0,34,0.00,FEW,,0.00,WeatherDisplay:10.37,2013-11-11 21:17:00,
2013-11-11 16:22:00,55.6,28.3,30.06,SE,135,0.0,0.0,35,0.00,FEW,,0.00,WeatherDisplay:10.37,2013-11-11 21:22:00,
2013-11-11 16:27:00,55.4,28.2,30.07,SE,135,0.0,0.0,35,0.00,FEW,,0.00,WeatherDisplay:10.37,2013-11-11 21:27:00,
2013-11-11 16:32:00,55.2,28.7,30.07,SE,135,1.1,0.0,36,0.00,FEW,,0.00,WeatherDisplay:10.37,2013-11-11 21:32:00,
2013-11-11 16:37:00,55.0,29.2,30.07,SE,135,1.1,0.0,37,0.00,FEW,,0.00,WeatherDisplay:10.37,2013-11-11 21:37:00,
2013-11-11 16:42:00,54.9,29.1,30.07,SE,135,1.1,0.0,37,0.00,FEW,,0.00,WeatherDisplay:10.37,2013-11-11 21:42:00,
2013-11-11 16:47:00,54.5,29.4,30.07,SE,135,0.0,0.0,38,0.00,FEW,,0.00,WeatherDisplay:10.37,2013-11-11 21:47:00,
2013-11-11 16:52:00,54.1,29.7,30.06,SE,135,0.0,0.0,39,0.00,FEW,,0.00,WeatherDisplay:10.37,2013-11-11 21:52:00,
2013-11-11 16:57:00,54.0,30.2,30.06,SE,135,0.0,0.0,40,0.00,FEW,,0.00,WeatherDisplay:10.37,2013-11-11 21:57:00,
2013-11-11 17:02:00,53.2,30.7,30.06,SE,135,0.0,0.0,42,0.00,OVC,,0.00,WeatherDisplay:10.37,2013-11-11 22:02:00,
2013-11-11 17:07:00,53.1,30.0,30.06,SE,135,0.0,0.0,41,0.00,OVC,,0.00,WeatherDisplay:10.37,2013-11-11 22:07:00,
2013-11-11 17:12:00,52.9,30.4,30.06,SE,135,1.1,1.1,42,0.00,OVC,,0.00,WeatherDisplay:10.37,2013-11-11 22:12:00,
2013-11-11 17:17:00,52.7,30.2,30.06,SE,135,1.1,0.0,42,0.00,OVC,,0.00,WeatherDisplay:10.37,2013-11-11 22:17:00,
2013-11-11 17:22:00,52.7,30.8,30.06,SE,135,1.1,1.1,43,0.00,OVC,,0.00,WeatherDisplay:10.37,2013-11-11 22:22:00,
2013-11-11 17:27:00,52.7,30.2,30.06,East,90,1.1,1.1,42,0.00,OVC,,0.00,WeatherDisplay:10.37,2013-11-11 22:27:00,
2013-11-11 17:32:00,52.7,30.2,30.06,East,90,1.1,0.0,42,0.00,OVC,,0.00,WeatherDisplay:10.37,2013-11-11 22:32:00,
2013-11-11 17:37:00,52.9,29.8,30.06,North,0,1.1,0.0,41,0.00,OVC,,0.00,WeatherDisplay:10.37,2013-11-11 22:37:00,
2013-11-11 17:42:00,52.9,30.4,30.06,East,90,1.1,0.0,42,0.00,OVC,,0.00,WeatherDisplay:10.37,2013-11-11 22:42:00,
2013-11-11 17:47:00,52.7,29.6,30.06,East,90,0.0,0.0,41,0.00,OVC,,0.00,WeatherDisplay:10.37,2013-11-11 22:47:00,
2013-11-11 17:52:00,52.5,30.6,30.06,East,90,1.1,0.0,43,0.00,OVC,,0.00,WeatherDisplay:10.37,2013-11-11 22:52:00,
2013-11-11 17:57:00,52.3,29.9,30.05,East,90,1.1,0.0,42,0.00,OVC,,0.00,WeatherDisplay:10.37,2013-11-11 22:57:00,
2013-11-11 18:02:00,52.2,29.7,30.05,East,90,0.0,0.0,42,0.00,OVC,,0.00,WeatherDisplay:10.37,2013-11-11 23:02:00,
2013-11-11 18:07:00,52.0,29.0,30.05,South,180,1.1,0.0,41,0.00,OVC,,0.00,WeatherDisplay:10.37,2013-11-11 23:07:00,
2013-11-11 18:12:00,51.6,29.3,30.05,South,180,0.0,0.0,42,0.00,OVC,,0.00,WeatherDisplay:10.37,2013-11-11 23:12:00,
2013-11-11 18:17:00,51.6,29.8,30.05,South,180,1.1,0.0,43,0.00,OVC,,0.00,WeatherDisplay:10.37,2013-11-11 23:17:00,
2013-11-11 18:22:00,51.4,30.2,30.04,South,180,1.1,0.0,44,0.00,OVC,,0.00,WeatherDisplay:10.37,2013-11-11 23:22:00,
2013-11-11 18:27:00,51.3,30.1,30.04,South,180,1.1,0.0,44,0.00,OVC,,0.00,WeatherDisplay:10.37,2013-11-11 23:27:00,
2013-11-11 18:32:00,51.1,30.5,30.04,South,180,1.1,0.0,45,0.00,OVC,,0.00,WeatherDisplay:10.37,2013-11-11 23:32:00,
2013-11-11 18:37:00,51.1,30.5,30.04,South,180,1.1,0.0,45,0.00,OVC,,0.00,WeatherDisplay:10.37,2013-11-11 23:37:00,
2013-11-11 18:42:00,51.1,29.3,30.03,South,180,1.1,0.0,43,0.00,OVC,,0.00,WeatherDisplay:10.37,2013-11-11 23:42:00,
2013-11-11 18:47:00,51.1,29.3,30.03,SW,225,1.1,0.0,43,0.00,OVC,,0.00,WeatherDisplay:10.37,2013-11-11 23:47:00,
2013-11-11 18:52:00,51.1,29.3,30.03,NE,45,0.0,0.0,43,0.00,OVC,,0.00,WeatherDisplay:10.37,2013-11-11 23:52:00,
2013-11-11 18:57:00,50.9,29.2,30.03,SW,225,1.1,0.0,43,0.00,OVC,,0.00,WeatherDisplay:10.37,2013-11-11 23:57:00,
2013-11-11 19:02:00,50.7,29.0,30.03,South,180,1.1,0.0,43,0.00,OVC,,0.00,WeatherDisplay:10.37,2013-11-12 00:02:00,
2013-11-11 19:07:00,50.7,29.0,30.02,South,180,0.0,0.0,43,0.00,OVC,,0.00,WeatherDisplay:10.37,2013-11-12 00:07:00,
2013-11-11 19:12:00,50.7,28.4,30.02,North,0,0.0,0.0,42,0.00,OVC,,0.00,WeatherDisplay:10.37,2013-11-12 00:12:00,
2013-11-11 19:17:00,50.5,28.3,30.02,SW,225,1.1,0.0,42,0.00,BKN,,0.00,WeatherDisplay:10.37,2013-11-12 00:17:00,
2013-11-11 19:22:00,50.7,27.8,30.02,SW,225,2.3,0.0,41,0.00,BKN,,0.00,WeatherDisplay:10.37,2013-11-12 00:22:00,
2013-11-11 19:27:00,50.9,28.0,30.01,SE,135,1.1,0.0,41,0.00,BKN,,0.00,WeatherDisplay:10.37,2013-11-12 00:27:00,
2013-11-11 19:32:00,51.1,28.2,30.01,South,180,2.3,0.0,41,0.00,BKN,,0.00,WeatherDisplay:10.37,2013-11-12 00:32:00,
2013-11-11 19:37:00,51.3,27.7,30.01,SW,225,2.3,2.3,40,0.00,BKN,,0.00,WeatherDisplay:10.37,2013-11-12 00:37:00,
2013-11-11 19:42:00,51.4,27.9,30.01,SW,225,1.1,0.0,40,0.00,BKN,,0.00,WeatherDisplay:10.37,2013-11-12 00:42:00,
2013-11-11 19:47:00,51.3,27.7,30.01,SW,225,1.1,0.0,40,0.00,BKN,,0.00,WeatherDisplay:10.37,2013-11-12 00:47:00,
2013-11-11 19:52:00,51.1,27.6,30.01,West,270,1.1,0.0,40,0.00,BKN,,0.00,WeatherDisplay:10.37,2013-11-12 00:52:00,
2013-11-11 19:57:00,51.1,27.6,30.01,South,180,1.1,0.0,40,0.00,BKN,,0.00,WeatherDisplay:10.37,2013-11-12 00:57:00,
2013-11-11 20:02:00,50.7,27.8,30.01,SW,225,0.0,0.0,41,0.00,BKN,,0.00,WeatherDisplay:10.37,2013-11-12 01:02:00,
2013-11-11 20:07:00,50.5,27.7,30.01,SE,135,1.1,0.0,41,0.00,BKN,,0.00,WeatherDisplay:10.37,2013-11-12 01:07:00,
2013-11-11 20:12:00,50.2,27.9,30.01,West,270,1.1,1.1,42,0.00,BKN,,0.00,WeatherDisplay:10.37,2013-11-12 01:12:00,
2013-11-11 20:17:00,50.0,28.4,30.00,South,180,1.1,0.0,43,0.00,BKN,,0.00,WeatherDisplay:10.37,2013-11-12 01:17:00,
2013-11-11 20:22:00,50.0,28.4,30.00,West,270,1.1,0.0,43,0.00,BKN,,0.00,WeatherDisplay:10.37,2013-11-12 01:22:00,
2013-11-11 20:27:00,49.8,28.2,30.01,West,270,0.0,0.0,43,0.00,BKN,,0.00,WeatherDisplay:10.37,2013-11-12 01:27:00,
2013-11-11 20:32:00,49.3,27.7,30.00,West,270,0.0,0.0,43,0.00,BKN,,0.00,WeatherDisplay:10.37,2013-11-12 01:32:00,
2013-11-11 20:37:00,48.9,27.4,30.00,West,270,0.0,0.0,43,0.00,BKN,,0.00,WeatherDisplay:10.37,2013-11-12 01:37:00,
2013-11-11 20:42:00,48.6,28.2,30.00,West,270,1.1,0.0,45,0.00,BKN,,0.00,WeatherDisplay:10.37,2013-11-12 01:42:00,
2013-11-11 20:47:00,48.2,27.8,30.00,East,90,0.0,0.0,45,0.00,BKN,,0.00,WeatherDisplay:10.37,2013-11-12 01:47:00,
2013-11-11 20:52:00,47.7,27.9,30.00,SE,135,0.0,0.0,46,0.00,BKN,,0.00,WeatherDisplay:10.37,2013-11-12 01:52:00,
2013-11-11 20:57:00,47.3,28.1,30.00,SE,135,1.1,0.0,47,0.00,BKN,,0.00,WeatherDisplay:10.37,2013-11-12 01:57:00,
2013-11-11 21:02:00,46.8,28.1,30.00,SE,135,1.1,0.0,48,0.00,FEW,,0.00,WeatherDisplay:10.37,2013-11-12 02:02:00,
2013-11-11 21:07:00,46.4,28.8,30.00,NW,315,1.1,0.0,50,0.00,FEW,,0.00,WeatherDisplay:10.37,2013-11-12 02:07:00,
2013-11-11 21:12:00,45.9,28.3,30.00,NW,315,1.1,0.0,50,0.00,FEW,,0.00,WeatherDisplay:10.37,2013-11-12 02:12:00,
2013-11-11 21:17:00,45.5,27.9,30.00,NW,315,1.1,0.0,50,0.00,FEW,,0.00,WeatherDisplay:10.37,2013-11-12 02:17:00,
2013-11-11 21:22:00,45.5,27.9,30.00,NW,315,1.1,0.0,50,0.00,FEW,,0.00,WeatherDisplay:10.37,2013-11-12 02:22:00,
2013-11-11 21:27:00,45.7,28.1,30.00,North,0,1.1,0.0,50,0.00,FEW,,0.00,WeatherDisplay:10.37,2013-11-12 02:27:00,
2013-11-11 21:32:00,45.5,27.9,30.00,North,0,1.1,0.0,50,0.00,FEW,,0.00,WeatherDisplay:10.37,2013-11-12 02:32:00,
2013-11-11 21:37:00,45.7,27.6,30.00,North,0,0.0,0.0,49,0.00,FEW,,0.00,WeatherDisplay:10.37,2013-11-12 02:37:00,
2013-11-11 21:42:00,46.0,27.9,30.00,NE,45,1.1,0.0,49,0.00,FEW,,0.00,WeatherDisplay:10.37,2013-11-12 02:42:00,
2013-11-11 21:47:00,46.4,27.8,29.99,NE,45,0.0,0.0,48,0.00,FEW,,0.00,WeatherDisplay:10.37,2013-11-12 02:47:00,
2013-11-11 21:52:00,46.4,27.8,30.00,NE,45,1.1,0.0,48,0.00,FEW,,0.00,WeatherDisplay:10.37,2013-11-12 02:52:00,
2013-11-11 21:57:00,46.4,27.8,29.99,SW,225,1.1,0.0,48,0.00,FEW,,0.00,WeatherDisplay:10.37,2013-11-12 02:57:00,
2013-11-11 22:02:00,46.4,27.8,29.99,SW,225,0.0,0.0,48,0.00,OVC,,0.00,WeatherDisplay:10.37,2013-11-12 03:02:00,
2013-11-11 22:07:00,46.2,28.1,29.99,SW,225,1.1,0.0,49,0.00,OVC,,0.00,WeatherDisplay:10.37,2013-11-12 03:07:00,
2013-11-11 22:12:00,46.0,27.9,29.99,SW,225,0.0,0.0,49,0.00,OVC,,0.00,WeatherDisplay:10.37,2013-11-12 03:12:00,
2013-11-11 22:17:00,45.9,27.8,29.99,SW,225,0.0,0.0,49,0.00,OVC,,0.00,WeatherDisplay:10.37,2013-11-12 03:17:00,
2013-11-11 22:22:00,45.9,27.8,29.99,West,270,0.0,0.0,49,0.00,OVC,,0.00,WeatherDisplay:10.37,2013-11-12 03:22:00,
2013-11-11 22:27:00,46.2,28.1,29.99,East,90,1.1,0.0,49,0.00,OVC,,0.00,WeatherDisplay:10.37,2013-11-12 03:27:00,
2013-11-11 22:32:00,46.4,28.3,29.99,SE,135,1.1,0.0,49,0.00,OVC,,0.00,WeatherDisplay:10.37,2013-11-12 03:32:00,
2013-11-11 22:37:00,46.6,29.4,29.99,SW,225,2.3,2.3,51,0.00,OVC,,0.00,WeatherDisplay:10.37,2013-11-12 03:37:00,
2013-11-11 22:42:00,46.9,29.7,29.99,North,10,2.3,0.0,51,0.00,OVC,,0.00,WeatherDisplay:10.37,2013-11-12 03:42:00,
2013-11-11 22:47:00,47.1,28.9,29.99,North,0,3.5,3.5,49,0.00,OVC,,0.00,WeatherDisplay:10.37,2013-11-12 03:47:00,
2013-11-11 22:52:00,47.3,28.6,29.98,North,0,1.1,1.1,48,0.00,OVC,,0.00,WeatherDisplay:10.37,2013-11-12 03:52:00,
2013-11-11 22:57:00,47.7,27.9,29.98,North,0,2.3,2.3,46,0.00,OVC,,0.00,WeatherDisplay:10.37,2013-11-12 03:57:00,
2013-11-11 23:02:00,48.0,28.7,29.98,North,0,1.1,0.0,47,0.00,OVC,,0.00,WeatherDisplay:10.37,2013-11-12 04:02:00,
2013-11-11 23:07:00,48.2,28.4,29.98,North,0,1.1,0.0,46,0.00,OVC,,0.00,WeatherDisplay:10.37,2013-11-12 04:07:00,
2013-11-11 23:12:00,48.4,28.5,29.99,North,0,1.6,1.6,46,0.00,OVC,,0.00,WeatherDisplay:10.37,2013-11-12 04:12:00,
2013-11-11 23:17:00,48.9,27.9,29.99,North,0,2.3,2.3,44,0.00,OVC,,0.00,WeatherDisplay:10.37,2013-11-12 04:17:00,
2013-11-11 23:22:00,49.3,27.7,29.98,North,0,1.1,1.1,43,0.00,OVC,,0.00,WeatherDisplay:10.37,2013-11-12 04:22:00,
2013-11-11 23:27:00,49.6,27.5,29.99,SW,225,3.5,3.5,42,0.00,OVC,,0.00,WeatherDisplay:10.37,2013-11-12 04:27:00,
2013-11-11 23:32:00,50.2,27.4,29.98,West,270,4.6,4.6,41,0.00,OVC,,0.00,WeatherDisplay:10.37,2013-11-12 04:32:00,
2013-11-11 23:37:00,51.1,27.6,29.98,SW,225,3.5,3.5,40,0.00,OVC,,0.00,WeatherDisplay:10.37,2013-11-12 04:37:00,
2013-11-11 23:42:00,51.4,27.3,29.98,SW,225,5.8,5.8,39,0.00,OVC,,0.00,WeatherDisplay:10.37,2013-11-12 04:42:00,
2013-11-11 23:47:00,51.8,27.6,29.98,SW,225,4.6,4.6,39,0.00,OVC,,0.00,WeatherDisplay:10.37,2013-11-12 04:47:00,
2013-11-11 23:52:00,51.8,27.0,29.99,West,270,6.9,6.9,38,0.00,OVC,,0.00,WeatherDisplay:10.37,2013-11-12 04:52:00,
2013-11-11 23:57:00,52.0,27.1,29.99,SW,225,4.6,4.6,38,0.00,OVC,,0.00,WeatherDisplay:10.37,2013-11-12 04:57:00,